User: anonymous   Login
Location: Unspecified
(0.0000°N, 0.0000°E)
Time: 08:47:56
(UTC+00:00)
Language:

FENGYUN 3F - Orbit

View from above orbital plane
View from above orbital plane
View from above satellite
View from above satellite

Ground track
Ground track

The orbit is defined by the following mean orbital elements,

1 57490U          26145.63668882 +.00000000 +00000-0 +37678-4 0 00008
2 57490  98.6841 216.0645 0001447 109.8726 250.2607 14.19934554    03
Epoch (UTC): 25 May 2026 15:16:49
Eccentricity: 0.0001447
inclination: 98.6841°
perigee height: 825 km
apogee height: 827 km
right ascension of ascending node: 216.0645°
argument of perigee: 109.8726°
revolutions per day: 14.19934554
mean anomaly at epoch: 250.2607°

The dashed part of the orbit path shows where the satellite is in the earth's shadow,  

DLR